Terminal Aerodrome Forecast
Issued by NWS Goodland, KS

Home | Current Version | Previous Version | Text Only | Print | Product List | Glossary On
Versions: 1 2 3 4 5 6 7 8 9 10 11 12 13 14 15 16 17 18 19 20 21
000
FTUS43 KGLD 011739
TAFGLD
TAF
KGLD 011739Z 0118/0218 03014G22KT P6SM SCT250
     FM012200 05011KT P6SM SCT250
     FM020300 09006KT P6SM BKN250
     FM021400 20009KT P6SM VCTS SCT090CB BKN200=

USA.gov is the U.S. government's official web portal to all federal, state and local government web resources and services.